User: anonymous   Login
Location: Acton
(51.4942°N, 0.2232°W)
Time: 11:10:38
(UTC+00:00)
Language:

Nadezhda 4 Rocket - Orbit

View from above orbital plane
View from above orbital plane
View from above satellite
View from above satellite

Ground track
Ground track

The orbit data is extracted from the following two-line orbital elements,

1 23180U 94041B   21170.75476203  .00000042  00000-0  25791-4 0  9991
2 23180  82.9467 281.9167 0030330  81.6092  71.6808 13.78005954354106
Epoch (UTC): 19 June 2021 18:06:51
Eccentricity: 0.0030330
inclination: 82.9467°
perigee height: 948 km
apogee height: 993 km
right ascension of ascending node: 281.9167°
argument of perigee: 81.6092°
revolutions per day: 13.78005954
mean anomaly at epoch: 71.6808°
orbit number at epoch: 35410

The dashed part of the orbit path shows where the satellite is in the earth's shadow,  

DLR